Location: Runa
(38.1429°N, 80.8510°W)
Time: 12:04:41
(UTC+00:00)

ISS - Pass Details

Date: 20 April 2026
Orbit: 414 x 424 km, 51.6° (Epoch: 12 May)

Event Time Altitude Azimuth Distance (km) Brightness Sun altitude
Exits shadow 09:39:53 19° 264° (W) 1,056 -2.3 -12.1°
Maximum altitude 09:41:53 41° 326° (NW) 624 -3.0 -11.7°
Drops below altitude 10° 09:45:06 10° 38° (NE) 1,504 0.1 -11.1°
Sets 09:47:18 0° 46° (NE) 2,373 1.6 -10.7°
